User: anonymous   Login
Location: *
(51.5000°N, 0.1100°W)
Time: 13:19:57
(UTC+00:00)
Language:

Cosmos 1953 - Orbit

View from above orbital plane
View from above orbital plane
View from above satellite
View from above satellite

Ground track
Ground track

The orbit data is extracted from the following two-line orbital elements,

1 19210U 88050A   24202.99284598  .00009292  00000-0  48544-3 0  9998
2 19210  82.5129  33.1504 0015410  56.6268 303.6436 15.15665453968113
Epoch (UTC): 20 July 2024 23:49:41
Eccentricity: 0.0015410
inclination: 82.5129°
perigee height: 508 km
apogee height: 529 km
right ascension of ascending node: 33.1504°
argument of perigee: 56.6268°
revolutions per day: 15.15665453
mean anomaly at epoch: 303.6436°
orbit number at epoch: 96811

The dashed part of the orbit path shows where the satellite is in the earth's shadow,  

DLR